When you browse on this site, cookies collect data to enhance your experience and personalize the content and advertising you see.
Visit our Privacy Policy to learn more. By continuing to use the site, you agree to this use of cookies and data.
  • In Hungary
  • List of Countries
  • For 7 days
  • Water Temperature
  • Satellite Maps
  • Weather Map
  • News
  • Weather Widgets
  • user-avatar
    Login

    Hourly Weather Marcinowka

    Today, 21 November, Wednesday

    Time Temperature Precipitation Wind Pressure Humidity
    00:00 -5°C° 0 mm 6 mps 743 mmHg 78%
    01:00 -5°C° 0 mm 6 mps 743 mmHg 78%
    02:00 -5°C° 0 mm 4 mps 744 mmHg 85%
    03:00 -6°C° 0 mm 5 mps 743 mmHg 85%
    04:00 -6°C° 0 mm 5 mps 743 mmHg 86%
    05:00 -6°C° 0 mm 5 mps 743 mmHg 86%
    06:00 -5°C° 0 mm 5 mps 743 mmHg 86%
    07:00 -5°C° 0 mm 5 mps 743 mmHg 87%
    08:00 -5°C° 0 mm 5 mps 743 mmHg 86%
    09:00 -5°C° 0 mm 5 mps 744 mmHg 84%
    10:00 -4°C° 0 mm 5 mps 744 mmHg 83%
    11:00 -4°C° 0 mm 5 mps 744 mmHg 81%
    12:00 -4°C° 0 mm 5 mps 744 mmHg 80%
    13:00 -2°C° 0 mm 5 mps 744 mmHg 79%
    14:00 -2°C° 0 mm 5 mps 744 mmHg 78%
    15:00 -2°C° 0 mm 5 mps 744 mmHg 79%
    16:00 -4°C° 0 mm 5 mps 744 mmHg 80%
    17:00 -3°C° 0 mm 4 mps 744 mmHg 82%
    18:00 -4°C° 0 mm 4 mps 744 mmHg 82%
    19:00 -4°C° 0 mm 4 mps 745 mmHg 83%
    20:00 -4°C° 0 mm 4 mps 745 mmHg 83%
    21:00 -5°C° 0 mm 4 mps 745 mmHg 84%
    22:00 -5°C° 0 mm 4 mps 745 mmHg 85%
    23:00 -5°C° 0 mm 4 mps 745 mmHg 86%

    Tomorrow, 22 November, Thursday

    Time Temperature Precipitation Wind Pressure Humidity
    00:00 -5°C° 0 mm 4 mps 745 mmHg 87%
    01:00 -5°C° 0 mm 3 mps 745 mmHg 87%
    02:00 -6°C° 0 mm 3 mps 745 mmHg 88%
    03:00 -6°C° 0 mm 3 mps 745 mmHg 88%
    04:00 -6°C° 0 mm 3 mps 745 mmHg 88%
    05:00 -6°C° 0 mm 3 mps 745 mmHg 88%
    06:00 -6°C° 0 mm 3 mps 745 mmHg 88%
    07:00 -6°C° 0 mm 3 mps 745 mmHg 88%
    08:00 -6°C° 0 mm 3 mps 745 mmHg 88%
    09:00 -5°C° 0 mm 3 mps 746 mmHg 84%
    10:00 -4°C° 0 mm 3 mps 746 mmHg 79%
    11:00 -2°C° 0 mm 3 mps 746 mmHg 75%
    12:00 -2°C° 0 mm 3 mps 746 mmHg 72%
    13:00 -1°C° 0 mm 3 mps 746 mmHg 70%
    14:00 0°C° 0 mm 3 mps 746 mmHg 68%
    15:00 -1°C° 0 mm 2 mps 746 mmHg 72%
    16:00 -2°C° 0 mm 2 mps 746 mmHg 76%
    17:00 -3°C° 0 mm 2 mps 745 mmHg 80%
    18:00 -3°C° 0 mm 2 mps 746 mmHg 80%
    19:00 -4°C° 0 mm 2 mps 746 mmHg 80%
    20:00 -4°C° 0 mm 2 mps 746 mmHg 80%
    21:00 -4°C° 0 mm 2 mps 746 mmHg 80%
    22:00 -4°C° 0 mm 2 mps 746 mmHg 80%
    23:00 -2°C° 0 mm 1 mps 746 mmHg 80%

    Day after tomorrow, 23 November, Friday

    Time Temperature Precipitation Wind Pressure Humidity
    00:00 -2°C° 0 mm 1 mps 746 mmHg 80%
    01:00 -2°C° 0 mm 1 mps 746 mmHg 80%
    02:00 -2°C° 0 mm 1 mps 746 mmHg 80%
    03:00 -2°C° 0 mm 1 mps 746 mmHg 80%
    04:00 -2°C° 0 mm 1 mps 746 mmHg 79%
    05:00 -2°C° 0 mm 1 mps 746 mmHg 79%
    06:00 -2°C° 0 mm 1 mps 746 mmHg 79%
    07:00 -5°C° 0 mm 2 mps 746 mmHg 79%
    08:00 -5°C° 0 mm 2 mps 746 mmHg 80%
    09:00 -3°C° 0 mm 2 mps 747 mmHg 75%
    10:00 -2°C° 0 mm 2 mps 747 mmHg 70%
    11:00 -1°C° 0 mm 2 mps 747 mmHg 65%
    12:00 -1°C° 0 mm 2 mps 747 mmHg 64%
    13:00 +1°C° 0 mm 2 mps 747 mmHg 63%
    14:00 +2°C° 0 mm 2 mps 746 mmHg 62%
    15:00 +1°C° 0 mm 2 mps 746 mmHg 66%
    16:00 -1°C° 0 mm 2 mps 746 mmHg 70%
    17:00 -2°C° 0 mm 2 mps 746 mmHg 75%
    18:00 -2°C° 0 mm 2 mps 745 mmHg 76%
    19:00 -2°C° 0 mm 3 mps 745 mmHg 78%
    20:00 -2°C° 0 mm 3 mps 745 mmHg 79%
    21:00 -2°C° 0 mm 3 mps 745 mmHg 82%
    22:00 -2°C° 0 mm 3 mps 744 mmHg 84%
    23:00 -2°C° 0 mm 3 mps 744 mmHg 87%

    24 November, Saturday

    Time Temperature Precipitation Wind Pressure Humidity
    00:00 -2°C° 0 mm 3 mps 744 mmHg 89%
    01:00 -1°C° 0 mm 3 mps 743 mmHg 91%
    02:00 -1°C° 0 mm 3 mps 743 mmHg 93%
    03:00 -1°C° 0 mm 3 mps 743 mmHg 93%
    04:00 -1°C° 0 mm 3 mps 742 mmHg 93%
    05:00 -1°C° 0 mm 3 mps 742 mmHg 94%
    06:00 -1°C° 0 mm 3 mps 741 mmHg 94%
    07:00 -1°C° 0 mm 3 mps 741 mmHg 94%
    08:00 -1°C° 0 mm 3 mps 740 mmHg 94%
    09:00 0°C° 0 mm 3 mps 740 mmHg 91%
    10:00 +1°C° 0 mm 3 mps 740 mmHg 88%
    11:00 +3°C° 0 mm 4 mps 740 mmHg 85%
    12:00 +3°C° 0 mm 3 mps 739 mmHg 85%
    13:00 +3°C° 0 mm 3 mps 739 mmHg 85%
    14:00 +4°C° 0 mm 3 mps 739 mmHg 85%
    15:00 +3°C° 0.3 mm 3 mps 738 mmHg 88%
    16:00 +3°C° 0.3 mm 2 mps 738 mmHg 90%
    17:00 +3°C° 0.3 mm 2 mps 738 mmHg 93%
    18:00 +3°C° 0.2 mm 2 mps 738 mmHg 94%
    19:00 +3°C° 0.2 mm 2 mps 737 mmHg 94%
    20:00 +3°C° 0.2 mm 2 mps 737 mmHg 95%
    21:00 +2°C° 0.1 mm 3 mps 737 mmHg 95%
    22:00 +2°C° 0.1 mm 3 mps 737 mmHg 95%
    23:00 +2°C° 0.1 mm 3 mps 737 mmHg 96%

    25 November, Sunday

    Time Temperature Precipitation Wind Pressure Humidity
    00:00 +2°C° 0.3 mm 3 mps 736 mmHg 96%
    01:00 +2°C° 0.3 mm 3 mps 736 mmHg 96%
    02:00 +2°C° 0.3 mm 3 mps 736 mmHg 96%
    03:00 +2°C° 0.2 mm 3 mps 736 mmHg 96%
    04:00 +2°C° 0.2 mm 3 mps 736 mmHg 96%
    05:00 +2°C° 0.2 mm 3 mps 735 mmHg 96%
    06:00 +2°C° 0.1 mm 3 mps 736 mmHg 96%
    07:00 +2°C° 0.1 mm 3 mps 736 mmHg 96%
    08:00 +2°C° 0.1 mm 3 mps 736 mmHg 96%
    09:00 +1°C° 0 mm 4 mps 736 mmHg 94%
    10:00 +1°C° 0 mm 4 mps 736 mmHg 92%
    11:00 +1°C° 0 mm 4 mps 736 mmHg 91%
    12:00 +1°C° 0 mm 4 mps 736 mmHg 90%
    13:00 +1°C° 0 mm 4 mps 736 mmHg 89%
    14:00 +1°C° 0 mm 4 mps 736 mmHg 88%
    15:00 +1°C° 0 mm 4 mps 736 mmHg 89%
    16:00 +2°C° 0 mm 3 mps 736 mmHg 90%
    17:00 +1°C° 0 mm 3 mps 736 mmHg 91%
    18:00 +1°C° 0 mm 3 mps 737 mmHg 91%
    19:00 +1°C° 0 mm 3 mps 737 mmHg 91%
    20:00 +1°C° 0 mm 3 mps 737 mmHg 92%
    21:00 +1°C° 0 mm 2 mps 737 mmHg 92%
    22:00 +1°C° 0 mm 2 mps 737 mmHg 92%
    23:00 +1°C° 0 mm 2 mps 737 mmHg 91%

    26 November, Monday

    Time Temperature Precipitation Wind Pressure Humidity
    00:00 +1°C° 0 mm 2 mps 737 mmHg 92%
    01:00 +1°C° 0 mm 2 mps 737 mmHg 92%
    02:00 +1°C° 0 mm 2 mps 738 mmHg 93%
    03:00 0°C° 0 mm 3 mps 738 mmHg 92%
    04:00 0°C° 0 mm 3 mps 738 mmHg 91%
    05:00 -1°C° 0 mm 3 mps 738 mmHg 90%
    06:00 -1°C° 0 mm 3 mps 738 mmHg 89%
    07:00 -1°C° 0 mm 3 mps 738 mmHg 87%
    08:00 -2°C° 0 mm 4 mps 738 mmHg 86%
    09:00 -3°C° 0 mm 4 mps 738 mmHg 84%
    10:00 -3°C° 0 mm 4 mps 739 mmHg 81%
    11:00 -3°C° 0 mm 4 mps 739 mmHg 79%
    12:00 -3°C° 0 mm 4 mps 739 mmHg 76%
    13:00 -3°C° 0 mm 4 mps 739 mmHg 74%
    14:00 -3°C° 0 mm 4 mps 739 mmHg 72%
    15:00 -3°C° 0 mm 4 mps 739 mmHg 73%
    16:00 -4°C° 0 mm 4 mps 739 mmHg 75%
    17:00 -4°C° 0 mm 4 mps 739 mmHg 76%
    18:00 -5°C° 0 mm 4 mps 739 mmHg 78%
    19:00 -5°C° 0 mm 4 mps 739 mmHg 79%
    20:00 -7°C° 0 mm 4 mps 740 mmHg 80%
    21:00 -7°C° 0 mm 4 mps 740 mmHg 81%
    22:00 -7°C° 0 mm 4 mps 740 mmHg 81%
    23:00 -7°C° 0 mm 4 mps 740 mmHg 82%
    Show more